HST
1 20580U 90037B   24354.91475518  .00006933  00000-0  28777-3 0  9997
2 20580  28.4665 177.1859 0001791 280.1360  79.9032 15.21847039705310
ISS (ZARYA)
1 25544U 98067A   24355.54896247  .00015498  00000-0  27129-3 0  9995
2 25544  51.6402 112.0335 0007683   2.7554  87.6931 15.50775670487457
CXO
1 25867U 99040B   24352.96810518  .00000410  00000-0  00000-0 0  9999
2 25867  45.4209 139.5472 8685624 305.3692 359.7996  0.37804484 15262